FW9615 Weather Reports


time (UTC)temp
C
wind
direction
speed
KPH
gust
KPH
rain 1hr
cm
rain 24hr
cm
rain mn
cm
humidity
%
barometer
mb
20260510094553 8 0 0.0 0.0 0.00 0.00 0.00 94 1012.1
20260510093103 8 0 0.0 0.0 0.00 0.00 0.00 94 1012.3
20260510091549 8 0 0.0 0.0 0.00 0.00 0.00 94 1012.1
20260510084550 8 0 0.0 0.0 0.00 0.00 0.00 94 1012.0
20260510083108 8 0 0.0 0.0 0.00 0.00 0.00 94 1012.2
20260510081608 8 0 0.0 0.0 0.00 0.00 0.00 94 1011.8
20260510080054 8 0 0.0 0.0 0.00 0.00 0.00 93 1011.6
20260510074603 8 0 0.0 0.0 0.00 0.00 0.00 93 1011.4
20260510073054 8 0 0.0 0.0 0.00 0.00 0.00 93 1011.2
20260510071554 8 0 0.0 0.0 0.00 0.00 0.00 93 1011.1
20260510070053 9 0 0.0 0.0 0.00 0.00 0.00 93 1010.9
20260510064603 9 0 0.0 0.0 0.00 0.00 0.00 93 1010.9
20260510063054 9 0 0.0 0.0 0.00 0.00 0.00 92 1010.5
20260510061558 10 0 0.0 0.0 0.00 0.00 0.00 92 1010.6
20260510060052 10 0 0.0 0.0 0.00 0.00 0.00 92 1010.6
20260510054557 10 0 0.0 0.0 0.00 0.00 0.00 92 1010.7
20260510053053 10 0 0.0 0.0 0.00 0.00 0.00 92 1010.8
20260510051559 10 0 0.0 0.0 0.00 0.00 0.00 92 1010.9
20260510050100 11 0 0.0 0.0 0.00 0.00 0.00 91 1010.9
20260510044632 11 0 0.0 0.0 0.00 0.00 0.00 91 1010.9
20260510043054 11 0 0.0 0.0 0.00 0.00 0.00 90 1011.0
20260510041554 11 0 0.0 0.0 0.00 0.00 0.00 90 1011.0
20260510040055 12 0 0.0 0.0 0.00 0.00 0.00 90 1010.9
20260510034554 12 0 0.0 0.0 0.00 0.00 0.00 89 1010.9
20260510033056 12 0 0.0 0.0 0.00 0.00 0.00 88 1010.9
20260510031558 13 0 0.0 0.0 0.00 0.00 0.00 87 1010.9
20260510030056 13 0 0.0 0.0 0.00 0.00 0.00 87 1010.8
20260510024552 13 0 0.0 0.0 0.00 0.00 0.00 87 1010.8
20260510023054 13 0 0.0 0.0 0.00 0.00 0.00 86 1010.6
20260510021557 14 0 0.0 0.0 0.00 0.00 0.00 85 1010.7
20260510020054 14 0 0.0 0.0 0.00 0.00 0.00 84 1010.6
20260510014558 15 0 0.0 0.0 0.00 0.00 0.00 83 1010.5
20260510013057 15 0 0.0 0.0 0.00 0.00 0.00 82 1010.2
20260510011558 15 0 0.0 0.0 0.00 0.00 0.00 82 1010.0
20260510010123 15 0 0.0 0.0 0.00 0.00 0.00 81 1009.9
20260510004557 16 0 0.0 0.0 0.00 0.00 0.00 78 1009.7
20260510003054 16 0 0.0 0.0 0.00 0.00 0.00 77 1009.5
20260510001556 17 0 0.0 0.0 0.00 0.00 0.00 74 1009.6
20260510000054 18 0 0.0 0.0 0.00 0.00 0.00 73 1009.5
20260509234607 18 0 0.0 0.0 0.00 0.00 0.00 72 1009.4
20260509233056 18 0 0.0 0.0 0.00 0.00 0.00 71 1009.3
20260509231553 18 0 0.0 0.0 0.00 0.00 0.00 70 1009.1
20260509230054 19 0 0.0 0.0 0.00 0.00 0.00 70 1009.0
20260509224552 19 0 0.0 4.8 0.00 0.00 0.00 69 1009.0
20260509223047 20 0 1.6 9.7 0.00 0.00 0.00 67 1009.1
20260509221557 20 139 1.6 4.8 0.00 0.00 0.00 65 1009.0
20260509220057 21 111 1.6 4.8 0.00 0.00 0.00 64 1008.9
20260509214554 21 80 1.6 8.0 0.00 0.00 0.00 65 1009.1
20260509213053 21 162 0.0 1.6 0.00 0.00 0.00 63 1009.0
20260509211558 21 0 0.0 3.2 0.00 0.00 0.00 61 1009.0
20260509210054 21 185 0.0 3.2 0.00 0.00 0.00 59 1009.1
20260509204551 22 181 0.0 0.0 0.00 0.00 0.00 60 1008.9
20260509203138 22 158 0.0 1.6 0.00 0.00 0.00 58 1008.9
20260509201604 22 255 1.6 4.8 0.00 0.00 0.00 59 1009.0
20260509200059 21 248 1.6 3.2 0.00 0.00 0.00 60 1009.1
20260509194547 21 47 0.0 3.2 0.00 0.00 0.00 62 1009.3
20260509193102 20 82 0.0 4.8 0.00 0.00 0.00 61 1009.7
20260509191603 20 0 1.6 4.8 0.00 0.00 0.00 60 1009.5
20260509190052 21 134 0.0 3.2 0.00 0.00 0.00 59 1009.7
20260509184555 21 0 0.0 3.2 0.00 0.00 0.00 60 1009.9
20260509183054 20 122 0.0 3.2 0.00 0.00 0.00 62 1009.9
20260509181600 19 0 0.0 1.6 0.00 0.00 0.00 60 1010.6
20260509180058 19 0 0.0 3.2 0.00 0.00 0.00 62 1010.9
20260509174550 19 0 0.0 1.6 0.00 0.00 0.00 61 1011.0
20260509173049 18 0 0.0 1.6 0.00 0.00 0.00 63 1011.1
20260509171552 18 295 0.0 1.6 0.00 0.00 0.00 63 1011.2
20260509170057 18 0 0.0 0.0 0.00 0.00 0.00 63 1011.3
20260509164602 18 0 0.0 1.6 0.00 0.00 0.00 64 1011.2
20260509163052 17 0 0.0 3.2 0.00 0.00 0.00 64 1011.4
20260509161556 17 0 0.0 0.0 0.00 0.00 0.00 63 1011.5
20260509160057 17 0 0.0 0.0 0.00 0.00 0.00 64 1011.6
20260509154555 17 0 0.0 3.2 0.00 0.00 0.00 63 1011.6
20260509153054 18 0 0.0 3.2 0.00 0.00 0.00 61 1011.5
20260509151555 18 0 0.0 1.6 0.00 0.00 0.00 62 1011.7
20260509150049 17 0 0.0 0.0 0.00 0.00 0.00 66 1011.8
20260509144547 17 0 0.0 1.6 0.00 0.00 0.00 65 1012.1
20260509143051 17 0 0.0 1.6 0.00 0.00 0.00 64 1012.1
20260509141553 17 0 0.0 3.2 0.00 0.00 0.00 63 1012.0
20260509140052 17 205 0.0 0.0 0.00 0.00 0.00 64 1012.0
20260509134551 17 0 1.6 8.0 0.00 0.00 0.00 61 1012.0
20260509133051 16 176 0.0 3.2 0.00 0.00 0.00 62 1012.0
20260509131551 16 96 0.0 1.6 0.00 0.00 0.00 64 1012.0
20260509130100 16 0 0.0 4.8 0.00 0.00 0.00 64 1011.9
20260509124549 15 0 0.0 1.6 0.00 0.00 0.00 66 1011.9
20260509123052 15 0 0.0 1.6 0.00 0.00 0.00 68 1012.0
20260509121549 14 0 0.0 0.0 0.00 0.00 0.00 67 1011.9
20260509120056 13 0 0.0 1.6 0.00 0.00 0.00 69 1011.8
20260509114550 13 0 0.0 0.0 0.00 0.00 0.00 70 1011.8
20260509113055 13 0 0.0 0.0 0.00 0.00 0.00 70 1011.6
20260509111604 12 0 0.0 0.0 0.00 0.00 0.00 69 1011.6
20260509110052 12 0 0.0 0.0 0.00 0.00 0.00 69 1011.5
20260509104552 12 0 0.0 0.0 0.00 0.00 0.00 68 1011.4
20260509103053 12 0 0.0 0.0 0.00 0.00 0.00 67 1011.3
20260509101551 12 0 0.0 0.0 0.00 0.00 0.00 67 1011.2
20260509100050 12 0 0.0 0.0 0.00 0.00 0.00 68 1011.0